Location: Asheville, NC
(35.6000°N, 82.5500°W)
Time: 02:37:04
(UTC-05:00)

Vanguard 2 Rocket - Pass Details

Date: 12 February 2018
Orbit: 555 x 3327 km, 32.9° (Epoch: 18 February)

Event Time Altitude Azimuth Distance (km) Brightness Sun altitude
Rises 07:56:39 0° 285° (WNW) 7,254 10.8 6.2°
Reaches altitude 10° 08:02:18 10° 279° (W) 6,055 10.5 7.3°
Maximum altitude 08:17:52 38° 221° (SW) 3,315 9.7 10.2°
Drops below altitude 10° 08:28:10 10° 158° (SSE) 4,021 11.1 12.1°
Sets 08:31:06 0° 149° (SSE) 4,669 11.6 12.6°
